Location: Newark
(45.2500°N, 7.5833°E)
Time: 21:00:12
(UTC+00:00)

SR - Pass Details

Date: 04 February 2020
Orbit: 575 x 880 km, 66.7° (Epoch: 26 February)

Event Time Altitude Azimuth Distance (km) Brightness Sun altitude
Rises 20:50:38 0° 252° (WSW) 3,456 ? -43.7°
Reaches altitude 10° 20:53:34 10° 265° (W) 2,534 ? -44.1°
Enters shadow 20:54:54 15° 275° (W) 2,176 ? -44.4°
